When you browse on this site, cookies collect data to enhance your experience and personalize the content and advertising you see.
Visit our Privacy Policy to learn more. By continuing to use the site, you agree to this use of cookies and data.
  • In Czech Republic
  • List of Countries
  • For 7 days
  • Water Temperature
  • Satellite Maps
  • Weather Map
  • Weather Widgets
  • user-avatar
    Login

    Hourly Weather Almaty

    Today, 18 December, Tuesday

    Time Temperature Precipitation Wind Pressure Humidity
    00:00 +2°C° 0.1 mm 5 mps 689 mmHg 67%
    01:00 +2°C° 0.1 mm 5 mps 689 mmHg 67%
    02:00 +2°C° 0.1 mm 5 mps 688 mmHg 66%
    03:00 +3°C° 0.1 mm 4 mps 688 mmHg 66%
    04:00 +3°C° 0.1 mm 4 mps 688 mmHg 65%
    05:00 -1°C° 0 mm 4 mps 688 mmHg 74%
    06:00 0°C° 0.1 mm 3 mps 688 mmHg 77%
    07:00 0°C° 0.1 mm 3 mps 688 mmHg 79%
    08:00 0°C° 0.1 mm 3 mps 688 mmHg 82%
    09:00 0°C° 0.3 mm 3 mps 688 mmHg 84%
    10:00 0°C° 0.3 mm 3 mps 689 mmHg 86%
    11:00 +1°C° 0 mm 3 mps 688 mmHg 89%
    12:00 0°C° 0.5 mm 3 mps 689 mmHg 88%
    13:00 0°C° 0.5 mm 3 mps 689 mmHg 87%
    14:00 -1°C° 0.5 mm 4 mps 689 mmHg 86%
    15:00 0°C° 0.1 mm 3 mps 690 mmHg 86%
    16:00 -1°C° 0.1 mm 3 mps 690 mmHg 85%
    17:00 -2°C° 0 mm 3 mps 691 mmHg 86%
    18:00 -4°C° 0 mm 3 mps 691 mmHg 83%
    19:00 -3°C° 0 mm 2 mps 690 mmHg 79%
    20:00 -4°C° 0 mm 2 mps 690 mmHg 76%
    21:00 -4°C° 0 mm 2 mps 690 mmHg 72%
    22:00 -4°C° 0 mm 2 mps 690 mmHg 67%
    23:00 -4°C° 0 mm 2 mps 690 mmHg 63%

    Tomorrow, 19 December, Wednesday

    Time Temperature Precipitation Wind Pressure Humidity
    00:00 -4°C° 0 mm 2 mps 690 mmHg 62%
    01:00 -3°C° 0 mm 2 mps 689 mmHg 61%
    02:00 -3°C° 0 mm 2 mps 689 mmHg 61%
    03:00 -3°C° 0 mm 2 mps 689 mmHg 64%
    04:00 -3°C° 0 mm 2 mps 689 mmHg 67%
    05:00 -3°C° 0 mm 2 mps 689 mmHg 70%
    06:00 -3°C° 0.1 mm 2 mps 689 mmHg 73%
    07:00 -2°C° 0.1 mm 2 mps 689 mmHg 76%
    08:00 -2°C° 0.1 mm 2 mps 689 mmHg 80%
    09:00 -2°C° 0.2 mm 2 mps 689 mmHg 79%
    10:00 -1°C° 0.2 mm 2 mps 689 mmHg 79%
    11:00 +1°C° 0.2 mm 2 mps 689 mmHg 78%
    12:00 +1°C° 0.2 mm 2 mps 689 mmHg 79%
    13:00 +1°C° 0.2 mm 2 mps 689 mmHg 79%
    14:00 +1°C° 0.2 mm 2 mps 689 mmHg 80%
    15:00 -1°C° 0.2 mm 2 mps 689 mmHg 82%
    16:00 -1°C° 0.2 mm 2 mps 690 mmHg 84%
    17:00 -1°C° 0.2 mm 2 mps 690 mmHg 86%
    18:00 -2°C° 0.2 mm 2 mps 691 mmHg 86%
    19:00 -2°C° 0.2 mm 2 mps 691 mmHg 87%
    20:00 -2°C° 0.2 mm 2 mps 691 mmHg 87%
    21:00 -2°C° 0.2 mm 2 mps 692 mmHg 87%
    22:00 0°C° 0.2 mm 1 mps 692 mmHg 88%
    23:00 0°C° 0.2 mm 1 mps 692 mmHg 88%

    Day after tomorrow, 20 December, Thursday

    Time Temperature Precipitation Wind Pressure Humidity
    00:00 0°C° 0.2 mm 1 mps 692 mmHg 88%
    01:00 0°C° 0.2 mm 1 mps 693 mmHg 89%
    02:00 0°C° 0.2 mm 1 mps 693 mmHg 89%
    03:00 0°C° 0.3 mm 1 mps 693 mmHg 90%
    04:00 0°C° 0.3 mm 1 mps 694 mmHg 91%
    05:00 0°C° 0.3 mm 1 mps 694 mmHg 91%
    06:00 0°C° 0.3 mm 1 mps 694 mmHg 91%
    07:00 0°C° 0.3 mm 1 mps 695 mmHg 92%
    08:00 0°C° 0.3 mm 1 mps 695 mmHg 92%
    09:00 0°C° 0.3 mm 1 mps 695 mmHg 91%
    10:00 0°C° 0.3 mm 1 mps 695 mmHg 90%
    11:00 0°C° 0.3 mm 1 mps 695 mmHg 89%
    12:00 -2°C° 0.3 mm 2 mps 695 mmHg 89%
    13:00 -2°C° 0.3 mm 2 mps 695 mmHg 90%
    14:00 -2°C° 0.3 mm 2 mps 695 mmHg 90%
    15:00 -2°C° 0.2 mm 2 mps 695 mmHg 91%
    16:00 -2°C° 0.2 mm 2 mps 696 mmHg 92%
    17:00 -1°C° 0.2 mm 1 mps 696 mmHg 94%
    18:00 -3°C° 0.2 mm 2 mps 696 mmHg 93%
    19:00 -4°C° 0.2 mm 2 mps 696 mmHg 93%
    20:00 -4°C° 0.2 mm 2 mps 697 mmHg 93%
    21:00 -4°C° 0.2 mm 2 mps 697 mmHg 93%
    22:00 -4°C° 0.2 mm 2 mps 697 mmHg 92%
    23:00 -5°C° 0.2 mm 2 mps 697 mmHg 92%

    21 December, Friday

    Time Temperature Precipitation Wind Pressure Humidity
    00:00 -5°C° 0.1 mm 2 mps 697 mmHg 91%
    01:00 -5°C° 0.1 mm 2 mps 697 mmHg 91%
    02:00 -5°C° 0.1 mm 2 mps 697 mmHg 90%
    03:00 -6°C° 0.1 mm 2 mps 697 mmHg 89%
    04:00 -6°C° 0.1 mm 2 mps 697 mmHg 88%
    05:00 -6°C° 0.1 mm 2 mps 697 mmHg 87%
    06:00 -6°C° 0 mm 2 mps 697 mmHg 86%
    07:00 -7°C° 0 mm 3 mps 697 mmHg 85%
    08:00 -7°C° 0 mm 3 mps 697 mmHg 84%
    09:00 -6°C° 0 mm 3 mps 697 mmHg 82%
    10:00 -5°C° 0 mm 3 mps 696 mmHg 80%
    11:00 -4°C° 0 mm 3 mps 696 mmHg 79%
    12:00 -2°C° 0 mm 3 mps 695 mmHg 78%
    13:00 -2°C° 0 mm 3 mps 694 mmHg 78%
    14:00 -2°C° 0 mm 3 mps 694 mmHg 77%
    15:00 -4°C° 0 mm 3 mps 694 mmHg 78%
    16:00 -5°C° 0 mm 3 mps 694 mmHg 78%
    17:00 -5°C° 0 mm 3 mps 694 mmHg 79%
    18:00 -5°C° 0 mm 4 mps 693 mmHg 78%
    19:00 -5°C° 0 mm 4 mps 693 mmHg 76%
    20:00 -5°C° 0 mm 4 mps 693 mmHg 75%
    21:00 -5°C° 0 mm 4 mps 693 mmHg 72%
    22:00 -6°C° 0 mm 5 mps 692 mmHg 70%
    23:00 -6°C° 0 mm 5 mps 692 mmHg 68%

    22 December, Saturday

    Time Temperature Precipitation Wind Pressure Humidity
    00:00 -6°C° 0 mm 5 mps 691 mmHg 65%
    01:00 -5°C° 0 mm 5 mps 691 mmHg 62%
    02:00 -4°C° 0 mm 4 mps 690 mmHg 60%
    03:00 -4°C° 0 mm 4 mps 690 mmHg 58%
    04:00 -4°C° 0 mm 4 mps 690 mmHg 57%
    05:00 -4°C° 0 mm 4 mps 689 mmHg 55%
    06:00 -3°C° 0 mm 4 mps 689 mmHg 55%
    07:00 -2°C° 0 mm 3 mps 689 mmHg 55%
    08:00 -2°C° 0 mm 3 mps 689 mmHg 55%
    09:00 -1°C° 0 mm 3 mps 689 mmHg 55%
    10:00 0°C° 0 mm 3 mps 689 mmHg 55%
    11:00 +2°C° 0 mm 3 mps 688 mmHg 55%
    12:00 +2°C° 0 mm 3 mps 688 mmHg 58%
    13:00 +2°C° 0 mm 3 mps 688 mmHg 61%
    14:00 +3°C° 0 mm 2 mps 687 mmHg 64%
    15:00 +2°C° 0.1 mm 2 mps 687 mmHg 66%
    16:00 +1°C° 0.1 mm 2 mps 687 mmHg 68%
    17:00 +1°C° 0.1 mm 2 mps 688 mmHg 69%
    18:00 +1°C° 0.1 mm 2 mps 688 mmHg 69%
    19:00 +1°C° 0.1 mm 2 mps 688 mmHg 70%
    20:00 +2°C° 0.1 mm 1 mps 688 mmHg 70%
    21:00 +1°C° 0.1 mm 2 mps 688 mmHg 70%
    22:00 +1°C° 0.1 mm 2 mps 688 mmHg 70%
    23:00 +1°C° 0.1 mm 2 mps 688 mmHg 69%

    23 December, Sunday

    Time Temperature Precipitation Wind Pressure Humidity
    00:00 +1°C° 0.1 mm 2 mps 688 mmHg 69%
    01:00 +1°C° 0.1 mm 2 mps 688 mmHg 69%
    02:00 +1°C° 0.1 mm 2 mps 687 mmHg 69%
    03:00 +1°C° 0.1 mm 2 mps 687 mmHg 69%
    04:00 +1°C° 0.1 mm 2 mps 687 mmHg 69%
    05:00 +1°C° 0.1 mm 2 mps 687 mmHg 69%
    06:00 +1°C° 0.1 mm 2 mps 687 mmHg 69%
    07:00 +1°C° 0.1 mm 2 mps 687 mmHg 69%
    08:00 +1°C° 0.1 mm 2 mps 688 mmHg 70%
    09:00 +2°C° 0.1 mm 2 mps 687 mmHg 69%
    10:00 +3°C° 0.1 mm 2 mps 687 mmHg 69%
    11:00 +3°C° 0.1 mm 2 mps 687 mmHg 68%
    12:00 +4°C° 0.1 mm 1 mps 687 mmHg 70%
    13:00 +4°C° 0.1 mm 1 mps 687 mmHg 72%
    14:00 +4°C° 0.1 mm 1 mps 687 mmHg 74%
    15:00 +3°C° 0.1 mm 1 mps 687 mmHg 76%
    16:00 +3°C° 0.1 mm 1 mps 688 mmHg 77%
    17:00 +1°C° 0.1 mm 0 mps 689 mmHg 79%
    18:00 +2°C° 0.3 mm 1 mps 689 mmHg 82%
    19:00 +2°C° 0.3 mm 1 mps 689 mmHg 85%
    20:00 +1°C° 0.3 mm 2 mps 690 mmHg 87%
    21:00 -1°C° 0.3 mm 2 mps 690 mmHg 89%
    22:00 -1°C° 0.3 mm 2 mps 690 mmHg 91%
    23:00 -1°C° 0.3 mm 2 mps 690 mmHg 92%
    Show more